Location: Unspecified
(0.0000°N, 0.0000°E)
Time: 07:44:01
(UTC+00:00)

Vanguard 2 Rocket - Pass Details

Date: 08 October 2022
Orbit: 555 x 3321 km, 32.9° (Epoch: 06 December)

Event Time Altitude Azimuth Distance (km) Brightness Sun altitude
Rises 17:14:47 0° 235° (SW) 6,177 12.4 8.1°
Reaches altitude 10° 17:18:21 10° 235° (SW) 5,443 12.1 7.2°
Maximum altitude 17:36:33 87° 323° (NW) 3,299 9.8 2.7°
Drops below altitude 10° 17:56:29 10° 53° (NE) 5,872 10.5 -2.2°
Sets 18:00:32 0° 53° (NE) 6,659 10.8 -3.2°
